Temperature
26 25 24 23 22 22 21 21 20 20 20 20 20 19 19 19 19 19 19 19 18 18 19 18 18 18 18 18 18 18 18 18 18 18 18 18 18 18 18 18 18 18 18
27 25 25 24 23 22 21 21 21 20 20 20 20 20 19 19 19 19 19 19 18 18 18 19 18 18 18 18 18 18 18 18 18 18 18 18 18 18 18 18 18 18 18
27 26 25 24 23 22 21 21 21 20 20 20 20 19 19 19 19 19 19 19 18 18 18 18 18 18 18 18 18 18 18 18 18 18 18 18 18 18 18 18 18 18 18
28 26 25 24 23 22 22 21 21 20 20 20 20 19 19 19 19 19 19 19 18 18 18 18 18 18 18 18 18 18 18 18 18 18 18 18 18 18 18 18 18 18 18
28 27 25 24 24 23 22 21 21 20 20 20 20 19 19 19 19 19 19 19 19 18 18 18 18 18 18 18 18 18 18 18 18 18 18 18 18 18 18 17 18 18 17
29 27 26 25 24 23 22 21 21 21 20 20 20 20 19 19 19 19 19 19 19 18 18 18 18 18 18 18 18 18 18 18 18 18 18 18 18 18 18 17 17 17 17
29 27 26 25 24 23 22 21 21 21 20 20 20 20 20 19 19 19 19 19 18 18 18 18 18 18 18 18 18 18 18 18 18 18 18 18 18 18 18 17 17 17 17
29 28 26 25 24 23 22 22 21 21 21 20 20 20 20 20 19 19 19 19 19 18 19 18 18 18 18 18 18 18 18 17 17 18 18 18 18 18 17 17 17 16 16
30 28 27 25 24 24 23 22 21 21 21 21 21 20 20 20 19 19 19 19 19 18 18 18 18 18 18 18 18 18 18 17 17 17 17 17 17 17 17 17 17 17 16
30 28 27 26 25 24 23 22 22 21 21 21 21 20 20 20 20 19 19 19 19 19 18 18 18 18 18 18 18 17 17 17 17 17 17 17 17 17 17 17 17 16 16
30 29 27 26 25 24 23 22 22 21 21 21 21 20 20 20 20 20 20 19 19 19 18 18 18 18 18 18 17 17 17 17 17 17 17 17 17 17 17 16 16 16 16
30 29 27 26 25 25 23 22 22 21 21 21 21 21 20 20 20 19 19 19 19 19 18 18 18 18 17 17 17 17 17 17 17 17 17 16 16 16 16 16 16 16 16
29 28 27 26 26 25 24 23 22 21 21 21 21 21 20 20 20 19 19 19 19 18 18 18 18 18 17 17 17 17 17 17 17 16 16 16 16 16 16 16 16 16 15
29 28 26 26 25 25 24 23 22 22 21 21 21 20 20 20 20 19 19 19 19 18 18 18 18 17 17 17 17 17 17 16 16 16 16 16 16 16 16 16 15 15 15
28 27 26 25 25 24 24 23 22 22 21 21 21 20 20 20 20 19 19 19 19 18 18 18 18 17 17 17 17 17 16 16 16 16 16 16 16 16 16 15 15 15 15
28 27 26 25 24 24 23 23 22 22 21 21 21 20 20 20 20 19 19 19 19 18 18 18 17 17 17 17 17 17 16 16 16 16 15 15 15 15 15 15 15 15 15
27 26 26 25 24 24 23 23 22 22 21 21 21 20 20 20 20 19 19 19 18 18 18 18 18 17 17 17 17 17 16 16 16 15 15 15 15 15 15 15 14 14 14
26 26 25 24 24 23 23 23 22 22 21 21 20 20 20 20 19 19 19 18 18 18 18 18 17 17 17 17 17 16 16 16 15 15 15 15 15 14 14 14 14 14 14
25 25 25 24 24 23 23 22 22 21 21 20 20 20 20 19 19 19 19 18 18 18 17 17 17 17 17 16 16 16 16 15 15 15 15 14 14 14 14 14 13 13 13
24 24 24 23 23 23 22 22 21 21 20 20 20 20 19 19 19 19 19 18 18 17 17 17 17 17 16 16 16 16 15 15 14 14 14 14 14 14 13 13 13 13 13
23 23 23 22 22 22 22 22 21 20 20 20 19 19 19 19 19 18 18 18 17 17 17 16 16 16 16 16 16 15 15 14 14 14 14 14 14 14 13 13 13 12 12
22 22 22 21 21 21 21 21 20 20 20 19 19 19 19 18 18 18 17 17 17 17 16 16 16 16 16 15 15 15 15 14 14 13 13 13 13 13 13 13 12 12 12
20 20 21 20 20 20 20 20 20 19 19 19 19 18 18 18 18 17 17 17 16 16 16 16 15 15 15 15 15 14 14 14 14 14 13 13 13 13 12 12 12 12 12
19 19 19 19 19 19 19 19 19 19 19 18 18 18 17 17 17 17 16 16 16 15 15 15 15 14 14 14 14 14 14 14 13 13 13 12 12 12 12 12 11 11 11
18 18 18 18 18 18 18 18 18 18 18 18 17 17 17 17 16 16 16 16 16 15 15 15 15 14 14 14 14 14 13 13 13 13 12 12 11 11 11 11 11 11 11
18 18 18 18 17 17 17 17 17 17 17 17 17 16 16 16 16 16 15 15 15 15 15 14 14 14 14 14 13 13 13 12 12 12 12 11 11 11 11 10 10 10 10
Wind_Speed
13 12 12 12 13 11 10 9 8 8 6 4 4 3 3 3 3 3 6 6 6 6 4 2 3 3 3 3 4 3 3 3 3 1 1 2 2 2 2 2 2 3 7
13 12 12 11 12 12 10 10 9 8 7 5 4 3 3 3 4 2 5 7 6 6 5 3 3 3 2 3 2 2 2 3 3 2 1 1 2 1 2 2 2 2 2
15 14 12 11 11 12 12 10 9 9 8 6 5 3 2 1 2 3 3 4 6 6 4 4 4 2 3 3 3 4 4 3 3 2 2 2 1 1 2 1 1 2 1
14 14 13 12 12 12 12 9 9 9 8 7 6 6 5 4 3 3 3 4 4 4 5 4 3 2 2 2 4 4 3 3 3 3 3 3 2 2 1 1 0 1 1
14 14 14 12 11 11 11 10 9 8 8 7 6 5 4 3 3 3 4 4 3 3 4 4 3 3 2 3 3 1 3 3 4 3 2 2 2 3 2 2 1 0 0
12 13 13 12 10 11 11 11 10 8 8 7 7 6 5 3 2 2 3 3 3 3 3 3 3 3 2 2 2 2 3 3 3 3 3 2 3 3 3 3 3 2 1
12 12 13 12 11 11 11 11 11 9 8 8 7 6 6 5 5 4 4 4 3 3 3 3 3 2 2 3 3 3 3 4 4 4 4 4 3 3 3 3 3 2 1
12 13 13 12 11 11 11 11 11 9 9 8 7 6 6 5 4 4 3 3 3 3 3 3 3 3 2 3 2 3 4 3 4 5 4 3 3 3 3 3 3 2 1
12 12 13 13 12 11 11 11 10 10 9 8 7 6 5 4 3 3 4 3 3 3 3 3 3 2 2 2 2 2 2 1 2 3 3 3 3 2 2 3 3 3 2
11 12 12 12 12 12 11 11 11 10 9 8 7 7 6 5 4 3 3 2 2 2 2 2 2 2 2 2 2 2 2 1 2 2 1 2 3 1 1 2 2 2 2
11 12 11 12 12 12 13 11 10 10 9 9 7 6 7 6 5 4 4 3 3 2 2 3 2 2 2 2 2 2 1 1 1 2 1 1 2 2 1 1 1 2 2
10 12 12 11 11 12 13 12 11 11 10 9 8 6 6 6 6 5 4 4 3 3 3 3 2 3 2 1 1 2 1 1 1 1 2 2 1 1 1 1 1 1 2
8 10 10 10 10 10 11 11 11 10 10 10 9 7 7 6 5 4 4 4 3 3 3 2 2 2 1 1 1 1 1 1 1 1 1 1 2 2 1 0 0 1 1
7 8 7 7 8 8 9 9 9 9 9 9 9 8 7 6 5 5 4 4 3 3 3 2 2 2 1 1 0 0 0 1 0 1 1 2 2 2 1 0 1 1 2
8 9 8 7 7 8 8 8 8 9 8 8 8 8 7 6 6 5 5 4 4 4 3 3 2 2 2 1 1 1 1 1 1 2 2 3 4 4 3 2 2 1 2
6 8 8 8 8 7 7 7 7 8 7 8 8 7 7 7 6 6 5 5 4 3 3 3 3 2 2 2 2 1 0 1 1 1 2 3 4 4 5 5 4 3 2
4 6 6 7 7 7 6 6 6 7 7 7 7 8 8 7 7 7 6 6 4 3 3 3 3 4 3 3 3 2 1 2 2 2 2 1 3 3 3 4 4 3 3
1 4 5 5 6 7 7 6 7 7 7 7 7 7 7 7 7 6 6 5 4 4 3 3 4 4 4 3 2 2 1 2 2 2 2 2 3 3 2 2 3 3 3
2 1 3 4 4 4 5 7 7 6 6 6 6 6 7 7 7 6 6 5 4 4 3 3 3 3 4 3 2 1 1 2 2 2 3 2 4 3 2 1 2 3 2
4 3 2 3 3 3 3 6 7 7 6 6 6 6 6 6 7 6 6 5 4 4 4 3 3 3 3 4 3 1 2 2 2 3 4 5 4 3 2 0 1 2 2
4 4 4 4 3 3 3 4 5 5 4 4 4 5 6 5 5 5 5 5 5 5 4 4 3 3 4 5 4 2 1 1 2 2 3 3 5 4 2 1 0 1 1
6 6 5 5 4 3 3 3 3 3 3 3 3 3 3 4 5 5 4 4 5 5 5 4 4 4 4 4 4 3 1 1 0 1 3 4 5 3 1 1 1 1 1
6 6 5 5 4 4 3 3 2 3 3 3 4 4 3 2 4 5 5 4 4 4 5 5 4 4 4 4 5 4 2 1 1 2 4 4 4 3 2 3 3 2 2
6 5 5 4 4 4 3 2 2 2 3 3 4 4 4 4 4 3 3 4 4 4 4 4 4 4 4 4 4 3 3 3 3 2 3 3 3 3 1 2 3 3 1
5 4 4 3 3 3 3 2 2 2 2 2 2 3 4 5 4 3 2 2 1 1 2 2 2 3 3 2 3 3 3 2 2 3 3 3 3 3 2 2 2 2 1
4 4 4 4 4 3 3 3 3 2 2 2 2 2 3 4 4 4 3 6 4 5 5 3 3 3 5 7 6 5 4 3 2 2 3 3 3 3 3 2 2 2 2
Wind_Direction
168 164 167 166 162 160 161 166 172 166 173 175 180 185 182 192 185 181 166 177 198 192 203 206 183 208 205 199 196 194 206 224 224 222 252 262 203 185 194 194 193 185 186
166 165 169 171 167 164 167 170 175 173 181 180 179 189 187 204 185 181 165 185 195 196 196 190 212 211 207 210 217 198 232 243 223 186 186 294 308 282 236 191 192 187 151
168 170 174 174 173 170 174 178 177 178 185 177 179 189 176 235 189 174 174 195 199 202 212 188 215 222 217 202 210 214 220 232 258 225 181 204 234 285 294 245 211 147 150
166 170 174 176 177 174 173 170 174 179 180 184 194 193 195 203 196 182 174 193 203 201 198 204 211 229 248 213 219 210 212 219 243 248 224 208 183 190 263 288 272 118 166
167 170 172 174 175 173 170 169 170 174 178 189 198 204 209 207 196 177 173 187 200 217 208 196 201 216 235 240 245 204 215 225 242 246 240 233 213 212 208 240 243 247 224
159 161 164 165 169 169 168 166 166 173 178 189 198 199 207 212 207 189 178 194 202 215 211 194 194 204 216 234 235 230 228 233 253 268 258 227 216 209 210 224 224 221 242
154 156 160 164 168 169 168 164 165 174 181 188 197 196 204 209 209 214 199 205 210 208 204 193 186 212 218 220 224 223 240 237 240 246 255 249 243 228 207 205 223 223 227
158 161 163 164 169 170 167 165 166 173 179 185 190 193 201 214 206 203 207 205 215 203 187 180 192 211 230 238 221 228 232 228 235 247 251 261 254 241 209 208 212 226 234
156 160 161 164 168 170 166 166 164 172 180 185 184 190 197 207 205 196 205 203 203 203 176 182 191 204 226 248 230 240 255 243 246 262 259 266 264 231 221 220 208 206 221
158 156 159 164 168 168 163 165 167 173 176 177 182 185 188 193 199 202 195 202 210 224 177 185 196 205 221 235 240 242 248 242 250 256 267 281 301 287 237 229 231 208 204
164 158 161 162 166 166 165 167 166 169 174 177 180 179 175 185 185 192 198 200 216 207 199 201 206 214 225 236 240 253 242 236 266 297 287 264 286 293 270 242 235 214 191
164 158 158 162 168 168 166 167 172 175 176 175 174 177 174 178 185 189 189 194 203 211 205 206 208 218 216 220 249 272 282 279 282 305 313 301 285 293 288 281 262 208 165
150 147 155 163 168 165 163 169 174 174 177 175 174 176 179 181 185 187 180 184 193 196 191 187 190 216 199 178 216 271 315 299 290 302 312 335 356 5 9 350 87 127 135
137 136 145 156 157 155 156 164 171 169 173 173 176 175 180 181 180 182 177 176 182 184 180 174 184 181 165 136 21 255 235 252 309 34 47 54 50 35 358 23 76 104 122
147 145 156 153 151 152 159 168 170 169 170 170 174 175 176 173 174 178 170 167 181 185 169 178 177 164 143 86 41 301 208 167 135 92 81 78 79 69 57 64 79 108 130
156 156 155 155 158 159 167 172 170 166 163 169 175 171 172 172 172 170 164 167 175 171 168 169 147 118 95 81 67 7 17 91 102 111 114 125 103 95 93 94 98 121 153
156 156 160 164 164 169 170 172 167 166 169 172 173 172 173 171 168 174 169 171 172 168 160 153 135 113 100 93 87 64 33 94 93 97 85 75 80 90 99 116 119 99 108
125 157 169 169 171 175 178 173 171 170 172 175 175 172 171 170 167 168 164 161 161 164 161 157 150 138 128 122 100 58 122 109 105 96 100 98 86 59 64 111 108 89 74
58 96 159 166 163 171 173 168 169 165 169 176 178 172 172 169 168 171 165 159 159 162 168 157 150 142 135 143 131 17 176 138 131 117 85 88 101 62 40 111 126 117 97
44 60 90 111 125 137 153 162 166 167 176 179 176 169 167 172 173 170 165 162 163 168 162 151 149 148 141 153 157 215 232 172 149 123 103 77 87 85 43 22 151 145 128
43 61 74 75 76 95 124 144 152 162 162 157 159 165 167 172 167 163 162 159 166 166 161 157 156 151 142 152 158 167 241 225 188 162 136 116 109 96 67 34 88 147 157
50 54 62 65 59 68 95 124 132 131 136 143 141 145 160 176 168 158 160 167 170 170 172 174 174 165 154 145 158 159 169 306 321 116 116 134 142 133 131 144 133 118 156
48 51 59 66 58 62 77 109 119 126 142 154 154 156 156 156 147 154 163 170 177 188 190 187 187 182 158 143 145 160 162 119 83 67 94 129 162 175 190 188 196 200 227
44 52 54 56 53 50 51 72 95 118 143 157 158 162 159 144 137 145 163 171 187 205 202 192 188 180 165 154 160 167 167 149 146 144 137 162 199 238 225 183 213 226 234
40 41 49 51 44 38 42 45 72 107 126 148 157 169 162 147 140 133 106 157 145 190 210 207 189 179 165 144 140 161 168 184 165 165 176 194 194 201 197 193 205 224 208
47 39 32 33 29 26 31 34 43 71 104 139 156 174 164 156 156 149 122 63 81 74 70 71 96 89 114 128 123 122 115 118 127 181 213 208 208 208 208 206 203 201 214
Height
1521 1524 1527 1530 1531 1533 1535 1537 1539 1540 1542 1544 1545 1547 1548 1550 1551 1552 1553 1554 1555 1556 1557 1558 1559 1560 1561 1562 1563 1563 1564 1564 1565 1566 1566 1566 1566 1566 1566 1567 1568 1568 1569
1518 1522 1525 1528 1530 1531 1533 1535 1537 1539 1541 1543 1544 1546 1548 1549 1550 1551 1552 1553 1554 1555 1556 1557 1558 1559 1560 1560 1561 1561 1562 1563 1564 1564 1564 1565 1566 1564 1565 1565 1565 1566 1567
1515 1519 1523 1526 1528 1530 1531 1534 1535 1537 1539 1541 1543 1545 1547 1548 1549 1550 1551 1552 1553 1554 1555 1555 1556 1557 1558 1558 1559 1560 1560 1561 1562 1563 1563 1563 1563 1563 1563 1563 1563 1564 1564
1512 1516 1520 1523 1526 1528 1530 1532 1534 1535 1537 1540 1542 1543 1545 1546 1548 1549 1549 1551 1552 1552 1553 1554 1555 1555 1556 1556 1557 1557 1558 1559 1559 1560 1561 1562 1561 1561 1561 1562 1562 1562 1562
1509 1514 1518 1521 1524 1527 1529 1530 1532 1534 1535 1537 1539 1541 1543 1545 1546 1547 1548 1549 1550 1550 1551 1552 1553 1553 1554 1554 1555 1555 1556 1556 1557 1557 1558 1558 1559 1559 1560 1559 1559 1560 1559
1507 1512 1516 1519 1523 1525 1527 1529 1530 1532 1534 1536 1537 1539 1541 1542 1544 1546 1546 1547 1548 1549 1550 1550 1551 1551 1552 1552 1552 1553 1553 1554 1554 1554 1555 1555 1556 1556 1556 1556 1556 1556 1556
1505 1510 1514 1518 1521 1523 1526 1527 1528 1530 1532 1534 1535 1537 1539 1541 1542 1543 1544 1546 1546 1547 1548 1548 1548 1549 1549 1550 1550 1550 1550 1551 1551 1551 1552 1552 1552 1553 1553 1553 1553 1553 1553
1503 1508 1512 1516 1519 1521 1524 1525 1527 1528 1530 1532 1534 1535 1537 1539 1540 1541 1542 1543 1544 1545 1546 1546 1546 1547 1547 1547 1547 1547 1548 1548 1548 1549 1549 1549 1549 1549 1549 1549 1550 1550 1550
1502 1506 1510 1514 1517 1520 1522 1524 1525 1527 1528 1530 1532 1534 1535 1537 1538 1540 1541 1542 1542 1543 1544 1544 1544 1544 1545 1545 1545 1545 1545 1545 1545 1545 1546 1546 1546 1546 1546 1547 1547 1548 1547
1500 1505 1509 1512 1515 1518 1520 1522 1523 1525 1527 1528 1530 1532 1533 1535 1536 1538 1539 1539 1540 1541 1541 1542 1542 1542 1542 1542 1542 1543 1543 1543 1543 1543 1543 1543 1543 1543 1544 1544 1544 1544 1545
1498 1502 1507 1510 1513 1516 1518 1520 1522 1523 1525 1527 1529 1531 1532 1534 1535 1535 1536 1537 1538 1539 1539 1539 1539 1539 1540 1540 1540 1540 1540 1540 1541 1541 1541 1540 1540 1540 1541 1541 1541 1541 1541
1495 1500 1504 1508 1512 1514 1516 1518 1520 1522 1524 1525 1527 1529 1530 1532 1533 1534 1534 1535 1536 1536 1537 1537 1537 1537 1537 1537 1538 1538 1538 1538 1538 1538 1538 1538 1538 1538 1538 1538 1538 1538 1538
1495 1498 1502 1506 1510 1512 1514 1517 1519 1520 1522 1523 1525 1527 1528 1529 1531 1532 1533 1533 1534 1534 1535 1535 1535 1535 1535 1535 1535 1536 1536 1536 1536 1535 1535 1535 1535 1535 1535 1535 1536 1536 1536
1494 1498 1502 1505 1508 1510 1512 1515 1517 1519 1520 1522 1524 1525 1526 1527 1529 1530 1531 1532 1532 1533 1533 1533 1533 1533 1533 1533 1533 1533 1533 1533 1533 1533 1533 1533 1533 1533 1533 1533 1533 1533 1534
1493 1495 1500 1503 1506 1508 1511 1513 1515 1517 1519 1520 1522 1524 1524 1526 1527 1528 1529 1530 1530 1531 1531 1531 1531 1531 1531 1531 1531 1531 1531 1531 1531 1531 1531 1531 1531 1531 1531 1531 1531 1531 1532
1493 1495 1497 1501 1504 1507 1509 1511 1513 1515 1517 1518 1520 1522 1523 1524 1525 1526 1527 1528 1528 1529 1529 1529 1530 1529 1530 1530 1530 1530 1530 1529 1529 1529 1529 1530 1530 1530 1530 1530 1530 1530 1530
1493 1495 1497 1500 1502 1505 1507 1509 1511 1513 1515 1516 1518 1520 1521 1522 1523 1524 1525 1526 1527 1527 1527 1528 1528 1528 1528 1528 1528 1528 1528 1528 1528 1528 1528 1529 1529 1528 1528 1528 1528 1528 1528
1492 1494 1496 1499 1501 1503 1505 1507 1509 1511 1513 1515 1516 1518 1519 1520 1521 1522 1523 1524 1525 1525 1526 1526 1526 1526 1526 1527 1527 1527 1527 1527 1527 1527 1527 1527 1527 1527 1527 1527 1526 1526 1526
1491 1493 1495 1497 1499 1501 1503 1505 1507 1509 1511 1513 1514 1515 1517 1518 1518 1519 1520 1521 1522 1523 1523 1524 1524 1525 1525 1525 1526 1526 1526 1526 1526 1526 1526 1526 1526 1526 1526 1526 1525 1525 1525
1491 1492 1494 1495 1497 1498 1500 1503 1505 1507 1508 1510 1511 1512 1514 1515 1515 1516 1517 1518 1519 1520 1521 1521 1522 1522 1523 1523 1524 1524 1524 1524 1525 1524 1524 1524 1524 1524 1524 1524 1524 1524 1524
1492 1492 1493 1494 1495 1496 1498 1500 1502 1504 1505 1507 1508 1510 1511 1512 1513 1514 1515 1516 1517 1518 1519 1519 1520 1520 1520 1521 1522 1522 1522 1523 1523 1523 1522 1522 1522 1522 1522 1523 1523 1523 1523
1492 1492 1492 1493 1494 1495 1496 1499 1500 1502 1504 1505 1506 1507 1508 1510 1511 1512 1513 1514 1515 1516 1517 1517 1517 1517 1517 1518 1519 1520 1520 1520 1521 1521 1521 1520 1520 1520 1521 1521 1521 1521 1521
1492 1492 1492 1493 1494 1495 1496 1497 1499 1500 1502 1503 1503 1504 1506 1507 1508 1509 1510 1511 1513 1514 1514 1515 1515 1515 1515 1515 1517 1517 1518 1518 1518 1519 1519 1519 1519 1519 1519 1519 1519 1519 1519
1493 1493 1493 1493 1493 1494 1495 1496 1497 1498 1499 1501 1501 1503 1503 1504 1505 1507 1508 1509 1511 1512 1512 1513 1513 1513 1513 1513 1514 1514 1515 1516 1516 1516 1517 1517 1517 1517 1517 1517 1517 1517 1517
1493 1493 1493 1493 1493 1494 1494 1495 1495 1496 1497 1498 1500 1501 1502 1502 1503 1504 1505 1506 1508 1508 1509 1510 1511 1510 1511 1511 1512 1512 1513 1513 1513 1514 1514 1514 1514 1514 1514 1514 1514 1515 1515
1493 1493 1492 1492 1493 1493 1493 1493 1493 1494 1495 1496 1498 1499 1499 1500 1501 1502 1502 1503 1505 1505 1506 1507 1508 1508 1509 1509 1509 1510 1510 1511 1511 1511 1512 1512 1512 1512 1512 1512 1512 1512 1512